SCP
0 0 0 0 0 0 0 0 0 0 0 0 0 0 0 0 -0 -0 -0 -0 -0 -0 -0 -0 0 0 0 0 0 0 0 0 0 0 0 0 0 0
0 0 0 0 0 0 0 0 0 0 0 0 0 0 0 0 -0 -0 -0 -0 -0 -0 -0 0 0 0 0 0 0 0 0 0 0 0 0 0 0 0
0 0 0 0 0 0 0 0 0 0 0 0 0 0 0 0 -0 0 -0 -0 -0 0 0 0 0 0 0 0 0 0 0 0 0 0 0 0 0 0
0 0 0 0 0 0 0 0 0 0 -0 0 0 0 0 0 -0 -0 0 0 0 -0 0 0 0 0 0 0 0 0 0 0 0 0 0 0 0 0
0 0 0 0 0 -0 0 0 0 0 0 0 0 0 0 0 0 0 0 -0 0 0 0 0 0 0 0 0 0 0 0 0 0 0 0 0 0 0
-0 0 0 -0 -0 0 0 0 0 0 0 0 0 0 0 0 0 0 0 0 0 0 0 0 0 0 0 0 0 0 0 0 0 0 0 0 0 0
-0 -0 0 0 0 0 -0 -0 0 0 0 0 0 0 0 0 0 0 0 0 0 0 0 0 0 0 0 0 0 0 0 0 0 0 0 0 0 0
0 0 0 0 0 0 0 0 0 0 -0 -0 0 0 0 0 0 0 0 0 0 0 0 0 0 0 0 0 0 0 0 0 0 0 0 0 0 0
0 0 0 0 0 0 0 0 0 0 0 0 0 0 0 0 0 0 0 0 0 0 0 0 0 0 0 0 0 0 0 0 0 0 0 0 0 0
0 0 0 0 0 -0 -0 -0 -0 -0 -0 -0 -0 -0 0 0 0 0 0 0 0 0 0 0 0 0 0 0 0 0 0 0 0 0 0 0 0 0
0 0 -0 -0 -0 0 -0 -0 0 -0 0 0 0 0 0 0 0 0 0 0 0 0 0 0 0 0 0 0 0 0 0 0 0 0 0 0 0 0
-0 -0 0 -0 -0 -0 -0 0 0 0 0 0 0 0 0 0 0 0 0 0 0 0 0 0 0 0 0 0 0 0 0 0 0 0 0 0 0 0
-0 0 0 0 0 0 0 0 0 0 0 0 0 0 0 0 0 0 0 0 0 0 0 0 0 0 0 0 0 0 0 0 0 0 0 0 0 0
0 0 0 0 0 0 0 0 0 0 0 0 0 0 0 0 0 0 0 0 0 0 0 0 0 0 0 0 0 0 0 0 0 0 0 0 0 0
0 0 0 0 0 0 0 0 0 0 0 0 0 0 0 0 0 0 0 0 0 0 0 0 0 0 0 0 0 0 0 0 0 0 0 0 0 0
0 0 0 0 0 0 0 0 0 0 0 0 0 0 0 0 0 0 0 0 0 0 0 0 0 0 0 0 0 0 0 0 0 0 0 0 0 0
0 0 0 0 0 0 0 0 0 0 0 0 0 0 0 0 0 0 0 0 0 0 0 0 0 0 0 0 0 0 0 0 0 0 0 0 0 0
0 0 0 0 0 0 0 0 0 0 0 0 0 0 0 0 0 0 0 0 0 0 0 0 0 0 0 0 0 0 0 0 0 0 0 0 0 0
0 0 0 0 0 0 0 0 0 0 0 0 0 0 0 0 0 0 0 0 0 0 0 0 0 0 0 0 0 0 0 0 0 0 0 0 0 0
0 0 0 0 0 0 0 0 0 0 0 0 0 0 0 0 0 0 0 0 0 0 0 0 0 0 0 0 0 0 0 0 0 0 0 0 0 0
0 0 0 0 0 0 0 0 0 0 0 0 0 0 0 0 0 0 -0 0 0 0 0 0 0 0 0 0 0 0 0 0 0 0 0 0 0 0
0 0 0 0 0 0 0 0 0 0 0 0 0 0 0 -0 -0 -0 0 0 0 0 0 0 0 0 0 0 0 0 0 0 0 0 0 0 0 0
0 0 0 0 0 0 0 0 0 0 0 0 0 0 -0 -0 -0 0 0 0 0 0 0 0 0 0 0 0 0 0 0 0 0 0 0 0 0 0
Wind_Speed_500mb
41 33 29 37 52 75 74 67 66 41 45 35 35 32 31 30 28 33 30 29 28 25 23 17 16 15 20 21 20 19 21 23 25 23 23 25 25 25
37 30 17 29 45 53 61 59 52 51 20 34 22 34 28 21 31 25 22 26 25 23 19 18 17 21 24 25 24 25 26 29 30 29 28 29 28 29
15 32 22 25 44 57 64 52 32 29 16 37 23 35 32 27 34 31 25 25 25 22 24 23 23 26 28 29 31 32 34 35 35 34 33 33 33 35
29 36 34 39 51 59 61 38 25 22 24 37 30 35 35 30 27 25 15 17 22 23 29 28 29 31 33 36 40 42 41 41 40 40 38 38 41 40
34 30 42 46 63 51 48 24 25 24 28 31 27 24 23 21 21 20 24 26 27 39 30 32 36 39 44 45 48 49 49 49 47 46 45 46 46 44
41 39 40 56 42 39 32 25 25 27 28 24 25 24 19 23 23 24 27 32 27 34 37 38 42 47 53 54 56 57 58 57 55 54 53 53 52 49
38 34 34 34 34 38 32 29 35 28 29 24 24 24 23 23 30 24 26 24 30 32 37 47 49 53 55 59 62 65 65 64 62 61 59 59 59 56
44 39 35 33 36 34 31 26 35 26 26 22 18 18 19 25 20 24 26 28 29 36 45 48 47 65 69 67 64 59 59 58 64 66 66 65 65 62
38 38 29 31 29 26 24 24 28 30 25 25 19 16 17 23 26 30 31 32 38 33 43 60 48 58 63 72 68 74 75 74 69 68 70 71 70 68
29 25 23 26 27 25 24 23 23 21 21 21 24 24 21 24 29 28 33 44 45 48 44 58 59 59 59 60 72 78 76 74 76 76 78 77 76 73
24 23 24 25 25 25 20 19 17 16 14 11 10 15 20 25 32 37 32 34 42 44 42 52 61 70 62 56 56 67 69 65 75 75 73 74 82 77
25 25 26 28 28 28 23 20 14 6 5 11 19 27 33 39 43 47 48 44 43 49 44 47 52 52 59 55 50 45 57 87 74 74 73 72 76 82
21 29 30 29 25 20 13 10 8 10 16 22 31 35 34 35 36 37 43 44 49 53 50 56 61 59 54 62 73 82 85 72 77 74 62 70 70 77
18 21 24 20 16 13 8 8 13 19 25 27 21 23 25 25 26 26 30 44 48 53 53 51 58 60 67 78 84 71 63 68 67 65 67 62 56 60
23 24 20 17 14 12 14 20 25 29 31 23 19 20 21 25 37 42 32 42 41 48 57 60 52 45 51 54 59 54 58 58 58 62 61 63 73 68
28 18 16 16 18 21 23 24 26 22 18 16 18 17 17 18 19 23 31 37 42 38 46 43 45 45 42 50 58 64 58 59 57 59 67 70 69 74
19 19 19 18 21 21 17 10 6 8 8 8 11 14 14 17 19 25 20 38 43 41 42 37 40 43 43 49 51 51 58 61 66 65 64 70 77 72
21 19 19 18 16 14 12 11 19 17 12 3 4 5 10 12 22 28 26 18 32 36 39 42 46 48 46 38 39 57 58 60 57 59 60 57 62 62
22 19 21 21 19 15 12 12 18 24 16 7 4 7 18 24 28 26 25 24 25 34 37 39 44 43 50 55 61 48 51 55 55 57 55 60 65 73
27 22 21 16 18 23 22 23 21 9 10 2 22 30 17 16 17 18 21 25 27 32 33 34 37 41 46 55 66 62 50 60 60 63 69 72 61 51
19 25 26 29 24 25 21 20 21 14 12 17 12 14 11 10 13 19 21 25 30 29 33 35 38 45 46 50 60 68 59 48 52 63 55 47 48 47
31 28 28 28 26 29 27 16 4 15 22 12 9 13 15 13 14 16 19 23 25 28 32 36 39 44 46 52 56 58 66 64 52 37 25 29 36 38
37 34 36 38 36 24 24 26 22 19 12 11 11 10 10 17 17 17 21 25 29 32 36 42 42 45 47 49 52 57 63 58 52 44 39 40 46 49
Wind_Direction_500mb
137 123 132 164 174 168 165 163 163 159 161 166 163 179 176 186 204 200 202 198 193 189 206 222 240 256 252 255 263 273 288 294 297 291 288 286 281 283
165 149 150 152 161 168 173 171 168 154 161 176 184 167 181 190 182 174 199 187 189 199 219 240 252 260 262 262 271 279 289 295 290 284 282 278 282 286
182 176 215 180 171 172 165 158 156 173 191 155 174 174 179 181 177 167 204 201 213 224 236 247 258 263 269 274 275 282 286 287 285 282 279 276 277 282
170 185 190 189 172 166 163 152 155 180 152 159 173 180 173 176 190 174 209 215 240 253 245 255 268 277 276 277 279 280 283 284 283 280 274 272 276 280
147 156 179 171 156 161 163 139 171 169 188 164 164 164 169 175 187 195 208 208 216 246 261 268 273 277 278 280 279 281 283 282 281 278 272 270 274 278
132 137 135 152 157 154 155 166 167 161 158 162 158 169 177 194 197 211 230 228 231 259 272 276 275 275 274 278 282 282 281 280 279 276 273 271 273 277
128 127 141 156 161 160 175 163 159 154 158 158 166 181 191 205 215 222 238 250 265 249 269 285 288 284 281 280 282 281 279 278 276 276 274 272 272 274
147 152 155 166 156 158 161 162 144 160 158 165 175 193 211 225 234 230 246 248 253 271 283 285 277 287 290 289 293 289 285 279 276 273 273 272 272 273
129 127 129 139 146 153 157 157 169 169 173 177 179 204 226 240 236 250 250 252 264 262 275 277 271 274 274 284 281 290 292 293 289 279 272 271 272 273
142 135 160 161 165 168 175 178 187 193 206 210 223 227 236 236 250 268 263 274 277 276 259 266 278 270 271 277 281 283 284 289 290 289 283 274 272 272
162 166 167 175 171 171 163 169 174 184 194 208 238 257 266 271 272 276 273 273 274 280 282 277 277 278 280 280 280 283 280 288 289 287 287 283 272 269
179 175 169 162 157 156 151 151 153 177 232 269 274 279 279 276 273 272 271 267 273 283 285 288 287 286 283 286 282 267 273 289 282 277 277 282 282 268
168 161 158 156 152 151 151 159 194 249 280 289 288 288 293 295 296 293 285 284 281 280 287 285 288 283 284 292 283 281 296 295 293 288 280 285 272 270
156 163 162 164 176 189 212 255 277 282 281 281 281 285 289 293 291 275 273 291 296 296 302 302 299 304 301 295 292 299 292 286 282 290 290 290 284 274
183 190 184 198 225 248 264 275 275 276 281 292 300 302 300 287 280 289 304 304 319 314 310 311 318 319 311 303 301 305 306 304 295 284 277 278 281 270
186 190 215 241 264 278 278 268 265 284 297 291 297 305 314 318 314 304 306 301 299 314 325 326 321 319 308 301 302 303 306 306 309 303 296 288 279 269
207 232 249 256 262 269 272 250 254 286 309 275 276 300 315 314 303 335 359 340 325 327 324 321 315 314 310 310 309 307 311 309 306 308 304 297 296 290
213 219 230 237 241 238 227 210 201 215 195 42 58 42 23 9 321 331 330 345 320 322 321 322 325 321 321 314 311 314 319 318 316 313 312 307 303 298
236 233 231 230 220 205 196 184 206 217 227 174 68 7 335 332 333 337 336 335 328 324 332 333 332 320 321 322 324 332 321 320 316 310 305 308 307 301
230 234 218 197 186 181 171 162 174 142 140 14 311 315 327 352 351 344 335 332 335 334 331 329 333 337 333 323 317 317 321 314 315 309 307 304 305 303
209 191 184 185 171 167 173 163 166 179 295 328 48 50 34 10 353 345 341 338 335 338 334 335 330 322 322 320 322 327 328 322 312 309 314 314 319 322
186 174 165 159 156 149 151 164 231 106 92 70 46 33 28 20 4 347 347 344 340 337 333 330 333 333 328 324 322 321 328 332 330 326 327 325 321 305
177 174 153 159 159 166 148 125 118 98 83 91 76 43 21 12 7 355 349 344 340 336 334 336 331 328 329 327 326 322 325 328 331 330 328 335 320 314
Wind_Speed_850mb
41 33 29 37 52 75 74 67 66 41 45 35 35 32 31 30 28 33 30 29 28 25 23 17 16 15 20 21 20 19 21 23 25 23 23 25 25 25
37 30 17 29 45 53 61 59 52 51 20 34 22 34 28 21 31 25 22 26 25 23 19 18 17 21 24 25 24 25 26 29 30 29 28 29 28 29
15 32 22 25 44 57 64 52 32 29 16 37 23 35 32 27 34 31 25 25 25 22 24 23 23 26 28 29 31 32 34 35 35 34 33 33 33 35
29 36 34 39 51 59 61 38 25 22 24 37 30 35 35 30 27 25 15 17 22 23 29 28 29 31 33 36 40 42 41 41 40 40 38 38 41 40
34 30 42 46 63 51 48 24 25 24 28 31 27 24 23 21 21 20 24 26 27 39 30 32 36 39 44 45 48 49 49 49 47 46 45 46 46 44
41 39 40 56 42 39 32 25 25 27 28 24 25 24 19 23 23 24 27 32 27 34 37 38 42 47 53 54 56 57 58 57 55 54 53 53 52 49
38 34 34 34 34 38 32 29 35 28 29 24 24 24 23 23 30 24 26 24 30 32 37 47 49 53 55 59 62 65 65 64 62 61 59 59 59 56
44 39 35 33 36 34 31 26 35 26 26 22 18 18 19 25 20 24 26 28 29 36 45 48 47 65 69 67 64 59 59 58 64 66 66 65 65 62
38 38 29 31 29 26 24 24 28 30 25 25 19 16 17 23 26 30 31 32 38 33 43 60 48 58 63 72 68 74 75 74 69 68 70 71 70 68
29 25 23 26 27 25 24 23 23 21 21 21 24 24 21 24 29 28 33 44 45 48 44 58 59 59 59 60 72 78 76 74 76 76 78 77 76 73
24 23 24 25 25 25 20 19 17 16 14 11 10 15 20 25 32 37 32 34 42 44 42 52 61 70 62 56 56 67 69 65 75 75 73 74 82 77
25 25 26 28 28 28 23 20 14 6 5 11 19 27 33 39 43 47 48 44 43 49 44 47 52 52 59 55 50 45 57 87 74 74 73 72 76 82
21 29 30 29 25 20 13 10 8 10 16 22 31 35 34 35 36 37 43 44 49 53 50 56 61 59 54 62 73 82 85 72 77 74 62 70 70 77
18 21 24 20 16 13 8 8 13 19 25 27 21 23 25 25 26 26 30 44 48 53 53 51 58 60 67 78 84 71 63 68 67 65 67 62 56 60
23 24 20 17 14 12 14 20 25 29 31 23 19 20 21 25 37 42 32 42 41 48 57 60 52 45 51 54 59 54 58 58 58 62 61 63 73 68
28 18 16 16 18 21 23 24 26 22 18 16 18 17 17 18 19 23 31 37 42 38 46 43 45 45 42 50 58 64 58 59 57 59 67 70 69 74
19 19 19 18 21 21 17 10 6 8 8 8 11 14 14 17 19 25 20 38 43 41 42 37 40 43 43 49 51 51 58 61 66 65 64 70 77 72
21 19 19 18 16 14 12 11 19 17 12 3 4 5 10 12 22 28 26 18 32 36 39 42 46 48 46 38 39 57 58 60 57 59 60 57 62 62
22 19 21 21 19 15 12 12 18 24 16 7 4 7 18 24 28 26 25 24 25 34 37 39 44 43 50 55 61 48 51 55 55 57 55 60 65 73
27 22 21 16 18 23 22 23 21 9 10 2 22 30 17 16 17 18 21 25 27 32 33 34 37 41 46 55 66 62 50 60 60 63 69 72 61 51
19 25 26 29 24 25 21 20 21 14 12 17 12 14 11 10 13 19 21 25 30 29 33 35 38 45 46 50 60 68 59 48 52 63 55 47 48 47
31 28 28 28 26 29 27 16 4 15 22 12 9 13 15 13 14 16 19 23 25 28 32 36 39 44 46 52 56 58 66 64 52 37 25 29 36 38
37 34 36 38 36 24 24 26 22 19 12 11 11 10 10 17 17 17 21 25 29 32 36 42 42 45 47 49 52 57 63 58 52 44 39 40 46 49
Wind_Direction_850mb
137 123 132 164 174 168 165 163 163 159 161 166 163 179 176 186 204 200 202 198 193 189 206 222 240 256 252 255 263 273 288 294 297 291 288 286 281 283
165 149 150 152 161 168 173 171 168 154 161 176 184 167 181 190 182 174 199 187 189 199 219 240 252 260 262 262 271 279 289 295 290 284 282 278 282 286
182 176 215 180 171 172 165 158 156 173 191 155 174 174 179 181 177 167 204 201 213 224 236 247 258 263 269 274 275 282 286 287 285 282 279 276 277 282
170 185 190 189 172 166 163 152 155 180 152 159 173 180 173 176 190 174 209 215 240 253 245 255 268 277 276 277 279 280 283 284 283 280 274 272 276 280
147 156 179 171 156 161 163 139 171 169 188 164 164 164 169 175 187 195 208 208 216 246 261 268 273 277 278 280 279 281 283 282 281 278 272 270 274 278
132 137 135 152 157 154 155 166 167 161 158 162 158 169 177 194 197 211 230 228 231 259 272 276 275 275 274 278 282 282 281 280 279 276 273 271 273 277
128 127 141 156 161 160 175 163 159 154 158 158 166 181 191 205 215 222 238 250 265 249 269 285 288 284 281 280 282 281 279 278 276 276 274 272 272 274
147 152 155 166 156 158 161 162 144 160 158 165 175 193 211 225 234 230 246 248 253 271 283 285 277 287 290 289 293 289 285 279 276 273 273 272 272 273
129 127 129 139 146 153 157 157 169 169 173 177 179 204 226 240 236 250 250 252 264 262 275 277 271 274 274 284 281 290 292 293 289 279 272 271 272 273
142 135 160 161 165 168 175 178 187 193 206 210 223 227 236 236 250 268 263 274 277 276 259 266 278 270 271 277 281 283 284 289 290 289 283 274 272 272
162 166 167 175 171 171 163 169 174 184 194 208 238 257 266 271 272 276 273 273 274 280 282 277 277 278 280 280 280 283 280 288 289 287 287 283 272 269
179 175 169 162 157 156 151 151 153 177 232 269 274 279 279 276 273 272 271 267 273 283 285 288 287 286 283 286 282 267 273 289 282 277 277 282 282 268
168 161 158 156 152 151 151 159 194 249 280 289 288 288 293 295 296 293 285 284 281 280 287 285 288 283 284 292 283 281 296 295 293 288 280 285 272 270
156 163 162 164 176 189 212 255 277 282 281 281 281 285 289 293 291 275 273 291 296 296 302 302 299 304 301 295 292 299 292 286 282 290 290 290 284 274
183 190 184 198 225 248 264 275 275 276 281 292 300 302 300 287 280 289 304 304 319 314 310 311 318 319 311 303 301 305 306 304 295 284 277 278 281 270
186 190 215 241 264 278 278 268 265 284 297 291 297 305 314 318 314 304 306 301 299 314 325 326 321 319 308 301 302 303 306 306 309 303 296 288 279 269
207 232 249 256 262 269 272 250 254 286 309 275 276 300 315 314 303 335 359 340 325 327 324 321 315 314 310 310 309 307 311 309 306 308 304 297 296 290
213 219 230 237 241 238 227 210 201 215 195 42 58 42 23 9 321 331 330 345 320 322 321 322 325 321 321 314 311 314 319 318 316 313 312 307 303 298
236 233 231 230 220 205 196 184 206 217 227 174 68 7 335 332 333 337 336 335 328 324 332 333 332 320 321 322 324 332 321 320 316 310 305 308 307 301
230 234 218 197 186 181 171 162 174 142 140 14 311 315 327 352 351 344 335 332 335 334 331 329 333 337 333 323 317 317 321 314 315 309 307 304 305 303
209 191 184 185 171 167 173 163 166 179 295 328 48 50 34 10 353 345 341 338 335 338 334 335 330 322 322 320 322 327 328 322 312 309 314 314 319 322
186 174 165 159 156 149 151 164 231 106 92 70 46 33 28 20 4 347 347 344 340 337 333 330 333 333 328 324 322 321 328 332 330 326 327 325 321 305
177 174 153 159 159 166 148 125 118 98 83 91 76 43 21 12 7 355 349 344 340 336 334 336 331 328 329 327 326 322 325 328 331 330 328 335 320 314